Terminal Aerodrome Forecast
Issued by NWS Glasgow, MT

Home | Current Version | Previous Version | Text Only | Print | Product List | Glossary On
Versions: 1 2 3 4 5 6 7 8 9 10 11 12 13 14 15 16 17 18 19 20 21 22 23 24
000
FTUS45 KGGW 201138
TAFGGW
TAF
KGGW 201138Z 2012/2112 31008KT P6SM BKN003 OVC010
     FM201400 31010KT P6SM BKN015
     FM201800 30015G24KT P6SM FEW080
     FM210200 VRB04KT P6SM FEW060=

USA.gov is the U.S. government's official web portal to all federal, state and local government web resources and services.